GW0206 Weather Reports


time (UTC)temp
F
wind
direction
speed
knots
gust
knots
rain 1hr
in
rain 24hr
in
rain mn
in
humidity
%
barometer
mb
20220927024531 49 286 1.7 8.7 0.00 0.12 0.12 91 1010.0
20220927024007 49 243 2.6 6.1 0.00 0.12 0.12 91 1009.9
20220927023601 49 269 2.6 7.8 0.00 0.12 0.12 91 1010.0
20220927023045 49 252 4.3 7.8 0.00 0.12 0.12 91 1009.9
20220927022534 49 287 3.5 7.8 0.00 0.12 0.12 90 1009.9
20220927022021 50 212 3.5 8.7 0.00 0.12 0.12 90 1010.0
20220927021507 50 271 5.2 8.7 0.00 0.12 0.12 90 1010.0
20220927021058 50 240 3.5 9.6 0.00 0.12 0.12 90 1009.9
20220927020546 50 245 3.5 11.3 0.00 0.12 0.12 90 1009.9
20220927020034 50 280 6.1 11.3 0.00 0.12 0.12 90 1009.8
20220927015523 50 254 5.2 11.3 0.00 0.12 0.12 90 1009.8
20220927015006 50 294 4.3 11.3 0.00 0.12 0.12 90 1009.8
20220927014557 50 295 4.3 10.4 0.00 0.12 0.12 90 1009.8
20220927014047 50 251 6.1 10.4 0.00 0.12 0.12 89 1009.8
20220927013539 50 280 5.2 11.3 0.00 0.12 0.12 90 1009.7
20220927013024 50 273 5.2 11.3 0.00 0.12 0.12 89 1009.7
20220927012508 50 253 5.2 11.3 0.00 0.12 0.12 89 1009.7
20220927012058 50 257 4.3 12.2 0.00 0.12 0.12 89 1009.6
20220927011546 50 278 6.1 12.2 0.00 0.12 0.12 88 1009.7
20220927011041 50 300 6.1 9.6 0.00 0.12 0.12 88 1009.6
20220927010525 50 264 4.3 9.6 0.00 0.12 0.12 88 1009.5
20220927010010 50 230 5.2 9.6 0.00 0.19 0.12 88 1009.7
20220927005609 50 254 3.5 10.4 0.00 0.19 0.12 88 1009.6
20220927005049 50 254 5.2 10.4 0.00 0.19 0.12 88 1009.6
20220927004536 50 288 3.5 10.4 0.00 0.19 0.12 87 1009.5
20220927004024 51 275 5.2 10.4 0.00 0.19 0.12 87 1009.4
20220927003512 51 274 6.1 11.3 0.00 0.19 0.12 87 1009.4
20220927003105 51 231 3.5 11.3 0.00 0.19 0.12 87 1009.4
20220927002550 51 276 4.3 10.4 0.00 0.19 0.12 87 1009.4
20220927002047 51 269 5.2 13.0 0.00 0.19 0.12 87 1009.2
20220927001525 51 306 6.1 13.9 0.00 0.19 0.12 87 1009.3
20220927001013 51 237 6.1 13.9 0.00 0.19 0.12 87 1009.1
20220927000506 51 290 5.2 14.8 0.00 0.19 0.12 87 1009.1
20220927000052 51 258 7.0 14.8 0.00 0.23 0.12 86 1009.0
20220926235539 51 250 4.3 12.2 0.00 0.23 0.12 87 1008.9
20220926235029 51 226 6.1 13.0 0.00 0.23 0.12 87 1008.9
20220926234516 51 262 7.0 13.0 0.00 0.23 0.12 87 1008.8
20220926234003 51 268 5.2 13.0 0.00 0.23 0.12 87 1008.7
20220926233556 51 264 6.1 15.6 0.00 0.23 0.12 87 1008.7
20220926233050 51 275 8.7 15.6 0.00 0.23 0.12 87 1008.6
20220926232529 51 264 7.8 14.8 0.00 0.23 0.12 87 1008.5
20220926232018 51 228 9.6 14.8 0.00 0.23 0.12 87 1008.4
20220926231506 51 251 5.2 13.0 0.00 0.23 0.12 87 1008.5
20220926231056 51 239 7.8 13.0 0.00 0.23 0.12 88 1008.3
20220926230544 51 270 7.0 14.8 0.00 0.23 0.12 88 1008.4
20220926230036 51 260 7.0 13.0 0.00 0.23 0.12 88 1008.4
20220926225525 51 251 7.0 11.3 0.00 0.23 0.12 89 1008.4
20220926225008 51 233 7.0 11.3 0.00 0.23 0.12 89 1008.3
20220926224558 51 248 7.0 11.3 0.00 0.23 0.12 89 1008.4
20220926224047 51 228 5.2 12.2 0.00 0.23 0.12 90 1008.5
20220926223535 51 239 7.8 12.2 0.01 0.23 0.12 90 1008.5
20220926223022 51 226 5.2 11.3 0.02 0.23 0.12 90 1008.5
20220926222510 51 275 7.0 12.2 0.03 0.23 0.12 90 1008.4
20220926222100 51 217 6.1 12.2 0.03 0.23 0.12 90 1008.4
20220926221608 51 252 6.1 11.3 0.03 0.23 0.12 91 1008.4
20220926221035 51 213 5.2 12.2 0.03 0.23 0.12 91 1008.4
20220926220522 51 263 6.1 9.6 0.03 0.23 0.12 91 1008.3
20220926220010 51 251 4.3 9.6 0.04 0.28 0.12 91 1008.4
20220926215603 51 249 5.2 8.7 0.04 0.28 0.12 91 1008.4
20220926215048 51 285 4.3 9.6 0.04 0.28 0.12 90 1008.4
20220926214554 51 262 5.2 10.4 0.04 0.28 0.12 90 1008.4
20220926214023 51 278 6.1 14.8 0.04 0.28 0.12 89 1008.5
20220926213515 52 291 7.0 13.0 0.03 0.27 0.11 88 1008.5
20220926213104 52 276 7.0 13.0 0.02 0.26 0.10 86 1008.4
20220926212552 52 291 6.1 11.3 0.01 0.25 0.09 85 1008.4
20220926212039 53 284 6.1 14.8 0.01 0.25 0.09 84 1008.3
20220926211534 53 288 5.2 14.8 0.01 0.25 0.09 82 1008.0
20220926211014 53 291 6.1 14.8 0.01 0.25 0.09 81 1007.9
20220926210501 54 294 4.3 16.5 0.01 0.25 0.09 79 1007.9
20220926210052 55 322 7.0 26.9 0.00 0.26 0.08 74 1007.7
20220926205539 57 264 10.4 26.9 0.00 0.26 0.08 66 1007.6
20220926205028 58 301 8.7 20.0 0.00 0.26 0.08 64 1007.3
20220926204521 59 276 7.0 15.6 0.00 0.26 0.08 64 1007.2
20220926204006 59 314 8.7 17.4 0.00 0.26 0.08 63 1006.8
20220926203554 60 279 9.6 20.9 0.00 0.26 0.08 61 1006.7
20220926203046 60 314 7.8 20.9 0.00 0.26 0.08 61 1006.5
20220926202528 61 245 8.7 21.7 0.00 0.26 0.08 60 1006.5
20220926202017 60 264 9.6 21.7 0.00 0.26 0.08 61 1006.5
20220926201505 61 299 9.6 22.6 0.00 0.26 0.08 61 1006.3
20220926201102 61 312 11.3 22.6 0.00 0.26 0.08 62 1006.3
20220926200544 61 291 10.4 21.7 0.00 0.26 0.08 62 1006.2
20220926200035 61 284 11.3 21.7 0.00 0.26 0.08 61 1006.2
20220926195525 61 271 10.4 18.2 0.00 0.26 0.08 64 1006.3
20220926195011 60 233 7.0 17.4 0.00 0.26 0.08 67 1006.3
20220926194637 60 249 7.0 17.4 0.00 0.26 0.08 66 1006.2
20220926194049 61 243 7.0 17.4 0.00 0.26 0.08 65 1006.2
20220926193543 60 251 7.8 13.9 0.00 0.26 0.08 64 1006.1
20220926193025 60 322 6.1 13.9 0.00 0.26 0.08 64 1006.0
20220926192514 61 291 7.8 17.4 0.00 0.26 0.08 62 1006.0
20220926191541 62 278 8.7 21.7 0.00 0.26 0.08 61 1005.9
20220926191032 63 256 10.4 21.7 0.00 0.26 0.08 59 1005.8
20220926190518 64 253 7.8 21.7 0.00 0.26 0.08 59 1005.8
20220926190005 64 292 12.2 21.7 0.00 0.38 0.08 59 1005.8
20220926185555 64 259 11.3 20.9 0.00 0.38 0.08 62 1005.7
20220926185043 63 209 7.0 16.5 0.00 0.38 0.08 64 1005.8
20220926184531 62 301 3.5 9.6 0.00 0.38 0.08 69 1005.8
20220926184019 61 316 4.3 10.4 0.00 0.38 0.08 68 1005.9
20220926183507 62 326 4.3 12.2 0.00 0.38 0.08 70 1005.8
20220926183102 62 252 2.6 13.0 0.00 0.38 0.08 70 1005.9
20220926182547 62 299 4.3 14.8 0.00 0.38 0.08 67 1005.9
20220926182040 62 263 7.0 13.0 0.00 0.38 0.08 65 1005.8
20220926181521 61 285 6.1 13.0 0.00 0.38 0.08 61 1005.7
20220926181009 61 297 7.0 14.8 0.00 0.38 0.08 65 1005.8
20220926180600 61 291 9.6 14.8 0.00 0.38 0.08 64 1005.8
20220926180047 60 270 7.8 21.7 0.00 0.38 0.08 64 1005.8
20220926175535 61 254 8.7 21.7 0.00 0.38 0.08 64 1005.9
20220926175031 60 277 10.4 18.2 0.00 0.38 0.08 67 1005.7
20220926174513 59 230 8.7 14.8 0.00 0.38 0.08 70 1005.8
20220926174101 59 237 5.2 14.8 0.00 0.38 0.08 70 1005.9
20220926173549 59 304 7.0 19.1 0.00 0.38 0.08 71 1005.8
20220926173036 60 324 8.7 19.1 0.00 0.38 0.08 68 1005.8
20220926172525 61 235 8.7 15.6 0.00 0.38 0.08 65 1005.6
20220926172014 61 237 7.8 15.6 0.00 0.38 0.08 65 1005.6
20220926171601 61 275 8.7 17.4 0.00 0.38 0.08 64 1005.6
20220926171048 60 299 7.8 21.7 0.00 0.38 0.08 67 1005.5
20220926170536 60 231 8.7 21.7 0.00 0.38 0.08 66 1005.7
20220926170025 60 297 10.4 20.9 0.00 0.38 0.08 64 1005.6
20220926165520 61 238 10.4 18.2 0.00 0.38 0.08 64 1005.7
20220926165006 61 262 11.3 18.2 0.00 0.38 0.08 65 1005.6
20220926164553 60 242 8.7 18.2 0.00 0.38 0.08 67 1005.8
20220926164039 60 248 9.6 18.2 0.00 0.38 0.08 67 1005.7
20220926163524 60 301 10.4 20.9 0.00 0.38 0.08 66 1005.6
20220926163012 60 283 12.2 20.9 0.00 0.38 0.08 65 1005.6
20220926162604 60 277 11.3 20.0 0.00 0.38 0.08 67 1005.6
20220926162055 60 288 10.4 20.0 0.00 0.38 0.08 67 1005.6
20220926161541 60 274 7.0 14.8 0.00 0.38 0.08 71 1005.6
20220926161026 58 279 7.8 14.8 0.00 0.38 0.08 75 1005.7
20220926160514 58 287 7.0 14.8 0.00 0.38 0.08 74 1005.6
20220926160008 58 308 7.8 15.6 0.00 0.38 0.08 74 1005.6
20220926155552 58 297 6.1 18.2 0.00 0.38 0.08 75 1005.6
20220926155040 58 271 6.1 18.2 0.00 0.38 0.08 73 1005.5
20220926154530 58 298 8.7 20.9 0.00 0.38 0.08 72 1005.5
20220926154023 59 302 7.8 18.2 0.00 0.38 0.08 73 1005.5
20220926153506 59 238 7.8 18.2 0.00 0.38 0.08 73 1005.4
20220926153057 59 287 12.2 18.2 0.00 0.38 0.08 71 1005.3
20220926152546 60 235 9.6 17.4 0.00 0.38 0.08 74 1005.5
20220926152034 60 243 10.4 17.4 0.00 0.38 0.08 73 1005.4
20220926151528 59 230 6.1 12.2 0.00 0.38 0.08 76 1005.4
20220926151010 59 281 7.8 13.9 0.00 0.38 0.08 78 1005.4
20220926150600 59 212 5.2 14.8 0.00 0.38 0.08 79 1005.5
20220926150050 59 259 7.8 15.6 0.00 0.38 0.08 76 1005.4
20220926145538 59 274 7.8 15.6 0.00 0.38 0.08 77 1005.6
20220926145028 59 292 6.1 13.9 0.00 0.38 0.08 80 1005.6
20220926144514 58 286 5.2 13.9 0.00 0.38 0.08 82 1005.6
20220926144006 58 261 7.8 20.0 0.00 0.38 0.08 81 1005.6
20220926143551 57 283 8.7 20.0 0.00 0.38 0.08 81 1005.6
20220926143040 57 247 5.2 13.0 0.00 0.38 0.08 84 1005.6
20220926142527 57 268 4.3 16.5 0.00 0.38 0.08 84 1005.6
20220926142016 57 267 9.6 16.5 0.00 0.38 0.08 83 1005.6
20220926141505 57 288 7.0 15.6 0.00 0.38 0.08 85 1005.6
20220926141053 56 304 8.7 15.6 0.00 0.38 0.08 85 1005.6
20220926140545 56 274 5.2 19.1 0.00 0.38 0.08 86 1005.6
20220926140029 56 195 11.3 19.1 0.00 0.38 0.08 84 1005.6
20220926135521 56 300 5.2 15.6 0.00 0.38 0.08 86 1005.5
20220926135006 56 300 8.7 15.6 0.00 0.38 0.08 87 1005.4
20220926134607 56 208 7.8 13.9 0.00 0.38 0.08 86 1005.5
20220926134043 55 300 4.3 14.8 0.00 0.38 0.08 88 1005.3
20220926133539 55 263 7.0 10.4 0.00 0.38 0.08 89 1005.3
20220926133023 54 247 6.1 11.3 0.00 0.38 0.08 90 1005.3
20220926132511 54 241 6.1 11.3 0.00 0.38 0.08 90 1005.2
20220926132056 54 323 6.1 13.0 0.00 0.38 0.08 92 1005.2
20220926131556 53 240 7.0 13.0 0.00 0.38 0.08 92 1005.3
20220926131033 53 278 4.3 9.6 0.00 0.38 0.08 92 1005.2
20220926130520 52 277 3.5 15.6 0.00 0.38 0.08 93 1005.2
20220926130011 52 260 7.0 15.6 0.00 0.41 0.08 93 1005.2
20220926125601 52 262 7.0 13.9 0.00 0.41 0.08 94 1005.2
20220926125045 52 256 7.0 13.9 0.00 0.41 0.08 94 1005.2
20220926124541 52 241 5.2 10.4 0.00 0.41 0.08 94 1005.4
20220926124031 51 310 4.3 12.2 0.00 0.41 0.08 95 1005.5
20220926123512 51 262 5.2 12.2 0.00 0.41 0.08 95 1005.6
20220926123102 51 229 7.0 12.2 0.00 0.41 0.08 95 1005.5
20220926122550 51 250 7.0 12.2 0.00 0.41 0.08 96 1005.5
20220926122037 51 256 2.6 8.7 0.00 0.41 0.08 96 1005.4
20220926121540 51 247 3.5 11.3 0.00 0.41 0.08 96 1005.5
20220926121004 51 226 5.2 11.3 0.00 0.41 0.08 96 1005.5
20220926120556 51 239 5.2 10.4 0.00 0.41 0.08 96 1005.4
20220926120043 50 262 5.2 11.3 0.00 0.45 0.08 96 1005.4
20220926115531 50 262 3.5 7.8 0.00 0.45 0.08 96 1005.2
20220926115019 50 262 3.5 7.8 0.00 0.45 0.08 96 1005.2
20220926114509 51 270 4.3 9.6 0.00 0.45 0.08 95 1005.1
20220926114057 50 278 4.3 9.6 0.00 0.45 0.08 95 1005.0
20220926113544 51 249 4.3 8.7 0.00 0.45 0.08 95 1005.0
20220926113035 51 241 4.3 8.7 0.00 0.45 0.08 95 1004.8
20220926112524 51 268 4.3 8.7 0.00 0.45 0.08 95 1004.7
20220926112008 51 241 2.6 12.2 0.00 0.45 0.08 95 1004.6
20220926111632 51 243 4.3 12.2 0.00 0.45 0.08 95 1004.5
20220926111047 51 240 4.3 10.4 0.00 0.45 0.08 95 1004.5
20220926110534 51 246 4.3 10.4 0.00 0.45 0.08 95 1004.5
20220926110027 52 235 6.1 10.4 0.00 0.47 0.08 96 1004.5
20220926105518 52 277 4.3 10.4 0.00 0.47 0.08 96 1004.3
20220926105100 52 245 4.3 10.4 0.00 0.47 0.08 96 1004.3
20220926104555 52 268 5.2 10.4 0.00 0.47 0.08 95 1004.3
20220926104036 52 260 4.3 12.2 0.00 0.47 0.08 96 1004.2
20220926103523 53 262 4.3 12.2 0.00 0.47 0.08 96 1004.2
20220926103017 53 256 5.2 13.9 0.00 0.47 0.08 96 1004.2
20220926102606 53 289 6.1 13.9 0.00 0.47 0.08 96 1004.2
20220926102051 53 291 3.5 13.0 0.00 0.47 0.08 96 1004.1
20220926101547 53 259 7.0 13.0 0.00 0.47 0.08 96 1004.1
20220926101027 53 272 6.1 10.4 0.00 0.47 0.08 97 1004.0
20220926100515 53 250 4.3 10.4 0.00 0.47 0.08 97 1003.9
20220926100002 53 260 6.1 13.9 0.00 0.47 0.08 97 1004.0
20220926095557 53 266 6.1 13.9 0.00 0.47 0.08 97 1004.1
20220926095041 54 264 7.0 13.0 0.00 0.47 0.08 97 1003.8
20220926094538 54 295 6.1 10.4 0.00 0.47 0.08 97 1004.0
20220926094018 54 274 6.1 13.0 0.00 0.47 0.08 97 1004.0
20220926093505 54 222 4.3 8.7 0.00 0.47 0.08 97 1003.9
20220926093056 54 229 4.3 8.7 0.00 0.47 0.08 97 1003.8
20220926092543 54 236 5.2 10.4 0.00 0.47 0.08 97 1003.8
20220926092031 54 238 5.2 10.4 0.00 0.47 0.08 98 1003.8
20220926091519 54 241 5.2 12.2 0.00 0.47 0.08 98 1003.7
20220926091008 54 254 6.1 12.2 0.00 0.47 0.08 98 1003.7
20220926090559 54 255 6.1 8.7 0.00 0.47 0.08 98 1003.7
20220926090046 53 232 5.2 13.0 0.00 0.47 0.08 98 1003.7
20220926085533 53 256 6.1 13.0 0.00 0.47 0.08 98 1003.7
20220926085023 53 249 7.0 9.6 0.00 0.47 0.08 98 1003.6
20220926084509 53 239 5.2 11.3 0.00 0.47 0.08 98 1003.7
20220926084059 53 244 4.3 11.3 0.00 0.47 0.08 98 1003.6
20220926083547 53 234 3.5 7.0 0.00 0.47 0.08 98 1003.5
20220926083055 53 258 3.5 7.0 0.00 0.47 0.08 98 1003.5
20220926082523 53 239 3.5 9.6 0.00 0.47 0.08 97 1003.6
20220926082012 53 225 4.3 9.6 0.00 0.47 0.08 97 1003.5
20220926081602 52 243 6.1 9.6 0.00 0.47 0.08 97 1003.5
20220926081049 53 226 4.3 9.6 0.00 0.47 0.08 97 1003.6
20220926080537 53 220 4.3 8.7 0.00 0.47 0.08 97 1003.6
20220926080029 53 248 3.5 8.7 0.00 0.56 0.08 97 1003.6
20220926075513 53 232 3.5 7.8 0.01 0.56 0.08 97 1003.6
20220926075004 53 233 2.6 5.2 0.01 0.56 0.08 97 1003.7
20220926074559 53 226 2.6 7.8 0.02 0.56 0.08 97 1003.8
20220926074039 53 251 4.3 7.8 0.02 0.56 0.08 97 1003.8
20220926073527 53 200 3.5 7.8 0.02 0.56 0.08 97 1003.9
20220926073036 53 239 3.5 6.1 0.02 0.56 0.08 97 1003.8
20220926072503 53 281 3.5 6.1 0.02 0.56 0.08 97 1003.9
20220926072057 53 224 1.7 7.8 0.02 0.56 0.08 97 1003.9
20220926071539 54 214 4.3 7.8 0.04 0.56 0.08 97 1004.0
20220926071028 54 258 4.3 8.7 0.05 0.56 0.08 97 1004.1
20220926070518 54 239 4.3 7.8 0.05 0.56 0.08 97 1004.1
20220926070016 54 221 3.5 7.8 0.06 0.56 0.08 97 1004.1
20220926065556 54 272 4.3 7.8 0.06 0.56 0.07 97 1004.2
20220926065042 54 214 3.5 7.0 0.06 0.56 0.07 97 1004.2
20220926064530 55 246 3.5 6.1 0.05 0.55 0.06 97 1004.3
20220926064020 55 268 2.6 6.1 0.05 0.55 0.06 97 1004.6
20220926063513 55 283 2.6 8.7 0.05 0.55 0.06 97 1004.4
20220926063100 55 268 3.5 8.7 0.05 0.55 0.06 97 1004.4
20220926062546 55 260 3.5 7.0 0.05 0.55 0.06 97 1004.4
20220926062037 55 215 2.6 6.1 0.04 0.54 0.05 97 1004.3
20220926061519 55 229 3.5 7.8 0.03 0.53 0.04 97 1004.6
20220926061006 55 287 4.3 11.3 0.02 0.52 0.03 97 1004.6
20220926060556 55 241 5.2 11.3 0.02 0.52 0.03 98 1004.6
20220926060045 54 239 5.2 8.7 0.01 0.51 0.02 97 1004.7
20220926055534 54 235 4.3 8.7 0.01 0.50 0.01 98 1004.8
20220926055025 54 242 3.5 6.1 0.01 0.50 0.01 98 1004.7
20220926054510 54 214 2.6 6.1 0.01 0.50 0.01 98 1004.7
20220926054102 54 260 1.7 4.3 0.01 0.50 0.01 97 1004.7
20220926053549 54 214 1.7 3.5 0.01 0.50 0.01 97 1004.7
20220926053044 54 241 1.7 3.5 0.01 0.50 0.01 97 1004.8
20220926052529 54 254 1.7 3.5 0.01 0.50 0.01 97 1004.8
20220926052012 54 237 1.7 3.5 0.01 0.50 0.01 97 1005.0
20220926051602 54 247 1.7 3.5 0.01 0.50 0.01 98 1004.9
20220926051050 54 216 1.7 3.5 0.01 0.50 0.01 98 1005.0
20220926050540 54 236 0.9 3.5 0.01 0.50 0.01 97 1005.0
20220926050028 54 242 1.7 3.5 0.01 0.50 0.01 97 1005.1
20220926045515 54 246 0.9 3.5 0.00 0.49 0.00 97 1005.1
20220926045005 54 270 0.9 2.6 0.00 0.49 0.00 97 1005.3
20220926044605 53 278 1.7 2.6 0.00 0.49 0.00 97 1005.3
20220926044042 53 256 1.7 3.5 0.00 0.49 0.00 97 1005.4
20220926043529 53 262 1.7 5.2 0.00 0.49 0.00 97 1005.3
20220926043028 53 257 2.6 5.2 0.00 0.49 0.00 97 1005.4
20220926042506 53 261 0.9 2.6 0.00 0.49 0.00 97 1005.3
20220926042056 53 296 0.9 3.5 0.00 0.49 0.00 97 1005.3
20220926041614 53 249 1.7 3.5 0.00 0.49 0.00 97 1005.4
20220926041031 53 258 1.7 3.5 0.00 0.49 0.00 96 1005.4
20220926040520 53 272 1.7 2.6 0.00 0.49 0.00 96 1005.4
20220926040007 53 262 1.7 3.5 0.00 0.49 0.49 96 1005.4
20220926035558 53 278 1.7 4.3 0.00 0.49 0.49 96 1005.4
20220926035044 53 255 1.7 4.3 0.00 0.49 0.49 96 1005.4
20220926034544 53 279 1.7 3.5 0.00 0.49 0.49 96 1005.4
20220926034020 54 254 2.6 5.2 0.00 0.49 0.49 96 1005.5
20220926033510 54 278 1.7 7.0 0.00 0.49 0.49 96 1005.5
20220926033135 54 267 2.6 7.0 0.00 0.49 0.49 96 1005.5
20220926032549 54 289 2.6 7.0 0.00 0.49 0.49 96 1005.4
20220926032035 54 276 4.3 7.0 0.00 0.49 0.49 96 1005.4
20220926031524 54 241 2.6 7.8 0.00 0.49 0.49 96 1005.4
20220926031010 54 253 3.5 7.8 0.00 0.49 0.49 96 1005.5
20220926030603 54 264 3.5 9.6 0.00 0.49 0.49 96 1005.5
20220926030051 54 264 6.1 9.6 0.00 0.49 0.49 96 1005.5
20220926025546 54 285 5.2 9.6 0.00 0.49 0.49 96 1005.4
20220926025027 54 301 2.6 7.8 0.00 0.49 0.49 96 1005.4